DW6250 Weather Reports


time (UTC)temp
C
wind
direction
speed
KPH
gust
KPH
rain 1hr
cm
rain 24hr
cm
rain mn
cm
humidity
%
barometer
mb
20200229071530 16 355 0.0 0.0 0.00 0.00 0.00 73 1018.0
20200229070014 16 355 0.0 0.0 0.00 0.00 0.00 76 1017.9
20200229064528 16 355 0.0 0.0 0.00 0.00 0.00 75 1018.1
20200229063109 16 355 0.0 0.0 0.00 0.00 0.00 76 1018.2
20200229061511 15 355 0.0 0.0 0.00 0.00 0.00 78 1018.4
20200229060035 15 355 0.0 0.0 0.00 0.00 0.00 79 1018.4
20200229054516 15 355 0.0 0.0 0.00 0.00 0.00 79 1018.5
20200229053012 16 355 0.0 0.0 0.00 0.00 0.00 77 1018.6
20200229051518 15 355 0.0 0.0 0.00 0.00 0.00 80 1018.6
20200229050013 15 355 0.0 3.2 0.00 0.00 0.00 80 1018.8
20200229044540 15 360 1.6 4.8 0.00 0.00 0.00 76 1018.9
20200229043015 16 14 0.0 0.0 0.00 0.00 0.00 77 1018.9
20200229041509 16 14 0.0 0.0 0.00 0.00 0.00 76 1019.0
20200229040026 16 14 0.0 0.0 0.00 0.00 0.00 75 1018.9
20200229034508 16 14 0.0 0.0 0.00 0.00 0.00 74 1018.9
20200229033007 16 14 0.0 1.6 0.00 0.00 0.00 74 1018.9
20200229031518 17 14 0.0 0.0 0.00 0.00 0.00 72 1018.7
20200229030015 17 14 0.0 0.0 0.00 0.00 0.00 70 1018.7
20200229024506 18 14 0.0 0.0 0.00 0.00 0.00 69 1018.5
20200229023026 18 14 0.0 1.6 0.00 0.00 0.00 68 1018.4
20200229021506 18 14 0.0 3.2 0.00 0.00 0.00 66 1018.3
20200229020009 19 14 0.0 1.6 0.00 0.00 0.00 63 1018.1
20200229014503 19 14 0.0 4.8 0.00 0.00 0.00 61 1017.9
20200229013002 20 13 1.6 4.8 0.00 0.00 0.00 57 1017.7
20200229011502 21 13 0.0 6.4 0.00 0.00 0.00 54 1017.6
20200229010201 22 18 1.6 9.7 0.00 0.00 0.00 50 1017.4
20200229004814 23 360 0.0 9.7 0.00 0.00 0.00 44 1017.2
20200229003212 23 360 3.2 11.3 0.00 0.00 0.00 44 1017.0
20200229001739 24 52 3.2 11.3 0.00 0.00 0.00 41 1016.8
20200229000200 25 11 4.8 14.5 0.00 0.00 0.00 39 1016.6
20200228234701 25 55 3.2 12.9 0.00 0.00 0.00 35 1016.5
20200228233217 26 355 8.0 12.9 0.00 0.00 0.00 36 1016.5
20200228231644 26 51 4.8 12.9 0.00 0.00 0.00 34 1016.3
20200228230123 26 44 8.0 14.5 0.00 0.00 0.00 34 1016.5
20200228224758 27 46 4.8 14.5 0.00 0.00 0.00 34 1016.4
20200228223236 27 24 6.4 14.5 0.00 0.00 0.00 30 1016.3
20200228221700 27 43 3.2 11.3 0.00 0.00 0.00 30 1016.1
20200228220144 27 59 4.8 12.9 0.00 0.00 0.00 29 1016.1
20200228214612 27 355 4.8 9.7 0.00 0.00 0.00 28 1016.0
20200228213306 27 40 4.8 14.5 0.00 0.00 0.00 29 1016.3
20200228211618 27 10 4.8 12.9 0.00 0.00 0.00 28 1016.4
20200228210052 27 32 4.8 12.9 0.00 0.00 0.00 27 1016.6
20200228204624 27 51 3.2 16.1 0.00 0.00 0.00 28 1016.8
20200228203053 27 5 6.4 16.1 0.00 0.00 0.00 27 1017.2
20200228201632 27 32 3.2 17.7 0.00 0.00 0.00 27 1017.4
20200228200055 26 24 4.8 12.9 0.00 0.00 0.00 25 1017.8
20200228194633 26 317 6.4 14.5 0.00 0.00 0.00 24 1018.1
20200228193052 26 5 4.8 17.7 0.00 0.00 0.00 25 1018.2
20200228191634 26 338 4.8 14.5 0.00 0.00 0.00 25 1018.4
20200228190106 26 38 4.8 14.5 0.00 0.00 0.00 30 1018.7
20200228184558 26 355 8.0 14.5 0.00 0.00 0.00 26 1019.0
20200228183034 25 11 4.8 14.5 0.00 0.00 0.00 22 1019.3
20200228181529 25 44 3.2 14.5 0.00 0.00 0.00 23 1019.5
20200228180102 25 42 3.2 11.3 0.00 0.00 0.00 24 1019.6
20200228174559 24 339 3.2 12.9 0.00 0.00 0.00 24 1019.7
20200228173031 24 336 3.2 8.0 0.00 0.00 0.00 24 1019.7
20200228171612 23 27 3.2 8.0 0.00 0.00 0.00 24 1019.7
20200228170031 23 11 1.6 6.4 0.00 0.00 0.00 27 1019.8
20200228164510 22 360 0.0 8.0 0.00 0.00 0.00 30 1019.8
20200228163030 22 355 3.2 8.0 0.00 0.00 0.00 29 1019.7
20200228161513 21 336 1.6 8.0 0.00 0.00 0.00 31 1019.6
20200228160238 20 19 3.2 8.0 0.00 0.00 0.00 31 1019.3
20200228154649 20 323 1.6 6.4 0.00 0.00 0.00 31 1019.1
20200228153222 19 324 0.0 4.8 0.00 0.00 0.00 37 1018.9
20200228151633 18 324 1.6 4.8 0.00 0.00 0.00 38 1019.0
20200228150114 17 324 1.6 4.8 0.00 0.00 0.00 37 1018.7
20200228144626 16 324 1.6 3.2 0.00 0.00 0.00 44 1018.7
20200228143043 14 324 0.0 3.2 0.00 0.00 0.00 51 1018.5
20200228141600 13 324 1.6 3.2 0.00 0.00 0.00 60 1018.3
20200228140043 14 324 0.0 3.2 0.00 0.00 0.00 53 1018.2
20200228134606 13 324 0.0 3.2 0.00 0.00 0.00 56 1018.1
20200228133057 14 331 1.6 4.8 0.00 0.00 0.00 58 1018.0
20200228131553 14 331 1.6 3.2 0.00 0.00 0.00 57 1017.9
20200228130058 14 331 1.6 3.2 0.00 0.00 0.00 52 1017.8
20200228124546 13 331 1.6 3.2 0.00 0.00 0.00 63 1017.6
20200228123056 13 333 1.6 3.2 0.00 0.00 0.00 62 1017.5
20200228121618 12 333 1.6 3.2 0.00 0.00 0.00 62 1017.5
20200228120031 13 333 1.6 3.2 0.00 0.00 0.00 56 1017.4
20200228114533 14 333 1.6 3.2 0.00 0.00 0.00 53 1017.4
20200228113117 13 333 1.6 3.2 0.00 0.00 0.00 55 1017.3
20200228111610 15 333 1.6 3.2 0.00 0.00 0.00 52 1017.2
20200228110031 13 333 1.6 3.2 0.00 0.00 0.00 67 1017.2
20200228104615 12 333 1.6 3.2 0.00 0.00 0.00 72 1017.3
20200228103208 12 333 0.0 3.2 0.00 0.00 0.00 70 1017.4
20200228101540 13 334 1.6 4.8 0.00 0.00 0.00 72 1017.5
20200228100021 13 338 1.6 4.8 0.00 0.00 0.00 70 1017.7
20200228094531 13 339 0.0 3.2 0.00 0.00 0.00 70 1017.8
20200228093019 14 339 1.6 3.2 0.00 0.00 0.00 66 1017.9
20200228090034 13 340 0.0 3.2 0.00 0.00 0.00 77 1018.2
20200228084519 13 340 0.0 3.2 0.00 0.00 0.00 78 1018.3
20200228083014 13 340 0.0 3.2 0.00 0.00 0.00 79 1018.1
20200228081504 13 341 1.6 3.2 0.00 0.00 0.00 78 1018.3
20200228080217 13 343 1.6 3.2 0.00 0.00 0.00 78 1018.5
20200228074636 13 343 1.6 3.2 0.00 0.00 0.00 81 1018.5
20200228073209 13 343 1.6 3.2 0.00 0.00 0.00 84 1018.4